ZHONGXING-3A

Last updated on Tue Sep 16 2025 00:02:51 GMT+0000 (Coordinated Universal Time)

1 60179U 24122A 25258.67609635 -.00000331 00000+0 00000+0 0 9994 2 60179 0.0148 233.9953 0001101 319.0154 146.8310 1.00273673 4554
UTC large
Height (km)
Speed (km/s)
/
Latitude / Longitude
Inclination (degrees)
Orbital Period (minutes)
Azimuth
Elevation
Range (km)
Doppler Factor

Next 0 passes for location: London (51.5072 / 0.1276)

Sorry there are no passes over London.